Orbital Elements at Epoch 2459200.5 (2020-Dec-17.0) TDB
Reference: JPL 21 (heliocentric ecliptic J2000)
Element | Value | Uncertainty (1-sigma) | Units |
e | .18294499062067 | 5.1039e-08 | |
a | 2.585562532801065 | 1.0349e-08 | au |
q | 2.112546819488619 | 1.3043e-07 | au |
i | 2.125465987267332 | 5.2518e-06 | deg |
node | 262.1935820558657 | 0.00012355 | deg |
peri | 97.79008632292508 | 0.00012439 | deg |
M | 209.830423314707 | 1.5306e-05 | deg |
tp | 2459833.947244568611 (2022-Sep-11.44724457) | 6.6068e-05 | TDB |
period | 1518.556641619896 4.16 | 9.1173e-06 2.496e-08 | d yr |
n | .2370672190508322 | 1.4233e-09 | deg/d |
Q | 3.058578246113512 | 1.2242e-08 | au |
|
| | Orbit Determination Parameters
Additional Information
|